Location: Le Hiès Ruisseau
(43.3000°N, 0.4500°W)
Time: 12:37:40
(UTC+00:00)

Okean O Rocket - Pass Details

Date: 28 January 2023
Orbit: 621 x 643 km, 98.2° (Epoch: 19 March)

Event Time Altitude Azimuth Distance (km) Brightness Sun altitude
Exits shadow 20:25:24 13° 238° (WSW) 1,816 4.4 -35.9°
Maximum altitude 20:27:21 17° 268° (W) 1,616 4.3 -36.2°
Drops below altitude 10° 20:30:11 10° 308° (NW) 2,021 4.8 -36.8°
Sets 20:33:08 0° 330° (NNW) 2,940 5.5 -37.3°
